Content
SEND FEEDBACK

Daily
Averages
Monthly
Summary
Canada

MONTREAL, QUEBEC


Home > North America > Canada > Quebec
Elevation: 118 feet     Latitude: 45 28N     Longitude: 073 45W

WEATHER
 
SELECT A DAY
Number of Records: 198,145;   Date Range: 1/1/95 - 7/28/14
 
SHARE

PRINT THIS DATA

[ ← Previous Day ]
WEATHER ALMANAC - JULY 23, 2013
[ Next Day → ]
[ °C ]   °F
Weather ElementAverageHighLow
Temperature72.1 °F80.6 °F (5:00 pm)66.2 °F (5:00 am)
Dewpoint64.4 °F70 °F (2:00 pm)53.6 °F (1:00 am)
Humidity76.7 %94 % (8:12 am)52 % (2:00 am)
Barometer29.63 in29.80 in (1:00 am)29.50 in (8:00 pm)
Wind Speed6.5 mph12.7 mph (7:00 pm)
Weather ElementAverage
Visibility13.2 mi
Wind DirectionSSE (144.8 °)

Weather ElementTotal
Precipitation---
Cooling Degree Days8.4 (Base 65)
Growing Degree Days23.4 (Base 50)
Averaged from 33 records on July 23, 2013
WEATHER CONDITIONS BREAKOUT
WIND DIRECTION BREAKOUT
WEATHER BY HOUR - JULY 23, 2013
[ °C ]   °F
Local TimeTemperatureDewpointHumidityBarometerVisibilityWind DirectionWind SpeedGust SpeedPrecipitationEventsConditions
1:00 AM68.0 °F53.6 °F60 %29.80 in15.0 miNNE (30°)4.6 mphOvercast
2:00 AM68.0 °F54.0 °F52 %29.78 in15.0 miNE (40°)4.6 mphOvercast
2:00 AM68.0 °F53.6 °F60 %29.78 in15.0 miNE (40°)5.8 mphOvercast
3:00 AM71.6 °F55.4 °F57 %29.76 in15.0 miEast (80°)5.8 mphOvercast
4:00 AM69.8 °F55.4 °F60 %29.73 in15.0 miEast (80°)6.9 mphMostly Cloudy
5:00 AM66.2 °F60.8 °F83 %29.72 in15.0 miNorth (350°)5.8 mphOvercast
5:13 AM66.2 °F60.8 °F83 %29.72 in15.0 miNorth (360°)5.8 mphOvercast
6:00 AM66.2 °F60.8 °F83 %29.71 in15.0 miNE (40°)5.8 mphOvercast
7:00 AM66.2 °F60.8 °F83 %29.70 in15.0 miNE (40°)4.6 mphOvercast
7:53 AM68.0 °F60.8 °F78 %29.70 in4.0 miNE (40°)4.6 mphRainLight Rain Showers
8:00 AM67.0 °F64.0 °F86 %29.70 in3.0 miEast (80°)4.6 mphRainLight Rain Showers
8:00 AM68.0 °F64.4 °F88 %29.70 in3.0 miESE (110°)5.8 mphRainLight Rain Showers
8:12 AM68.0 °F66.2 °F94 %29.69 in10.0 miESE (120°)9.2 mphRainLight Rain Showers
9:00 AM69.8 °F68.0 °F94 %29.68 in10.0 miSE (140°)9.2 mphRainLight Rain Showers
10:00 AM69.8 °F68.0 °F94 %29.66 in12.0 miCalmRainLight Rain Showers
11:00 AM69.8 °F68.0 °F94 %29.65 in10.0 miWSW (250°)3.5 mphLight Drizzle
12:00 PM71.6 °F68.0 °F88 %29.64 in10.0 miSouth (170°)2.3 mphRainLight Rain
12:40 PM71.6 °F68.0 °F88 %29.62 in15.0 miVariable2.3 mphMostly Cloudy
1:00 PM73.4 °F68.0 °F83 %29.61 in15.0 miSE (140°)5.8 mphMostly Cloudy
2:00 PM76.0 °F70.0 °F76 %29.60 in15.0 miSouth (180°)6.9 mphPartly Cloudy
2:00 PM77.0 °F69.8 °F78 %29.59 in15.0 miSouth (180°)6.9 mphMostly Cloudy
3:00 PM78.8 °F68.0 °F69 %29.57 in15.0 miSouth (180°)9.2 mphPartly Cloudy
4:00 PM78.8 °F69.8 °F74 %29.55 in15.0 miSouth (170°)6.9 mphPartly Cloudy
5:00 PM80.6 °F68.0 °F65 %29.54 in15.0 miSSW (200°)10.4 mphPartly Cloudy
6:00 PM80.6 °F68.0 °F65 %29.52 in15.0 miSSW (200°)9.2 mphMostly Cloudy
7:00 PM78.8 °F68.0 °F69 %29.51 in15.0 miSSE (160°)12.7 mphMostly Cloudy
8:00 PM77.0 °F67.0 °F65 %29.51 in15.0 miSSE (160°)11.5 mphPartly Cloudy
8:00 PM77.0 °F68.0 °F74 %29.50 in15.0 miSouth (170°)10.4 mphMostly Cloudy
9:00 PM77.0 °F66.2 °F69 %29.52 in15.0 miSSW (200°)10.4 mphOvercast
9:12 PM77.0 °F66.2 °F69 %29.52 in15.0 miSW (230°)12.7 mphRainLight Rain Showers
9:51 PM71.6 °F66.2 °F83 %29.54 in15.0 miNW (320°)5.8 mphMostly Cloudy
10:00 PM71.6 °F64.4 °F78 %29.53 in15.0 miNW (320°)3.5 mphMostly Cloudy
11:00 PM69.8 °F66.2 °F88 %29.51 in15.0 miCalmScattered Clouds
Hourly data recorded from CYUL, located miles away from Montreal, Quebec







STORIES FROM OUR PARTNERS